Regional Weather Roundup
Issued by NWS Wakefield, VA

Home | Current Version | Previous Version | Text Only | Print | Product List | Glossary Off
Versions: 1 2 3 4 5 6 7 8 9 10 11 12 13 14 15 16 17 18 19 20 21 22 23 24 25 26 27 28 29 30 31 32 33 34 35 36 37 38 39 40 41 42 43 44 45 46 47 48 49 50

000
ASUS41 KAKQ 022315
RWRAKQ

REGIONAL WEATHER ROUNDUP
NATIONAL WEATHER SERVICE WAKEFIELD VA
700 PM EDT SUN AUG 02 2015

Note: "fair" indicates few or no clouds below 12,000 feet with no
significant weather and/or obstructions to visibility. * = Denotes
station may not report precipitation (e.g., rain,snow,etc.),
thunder or fog.

VAZ042-051-052>054-056-030000-
NORTHERN VIRGINIA

CITY           SKY/WX    TMP DP  RH WIND       PRES   REMARKS
WASH NATIONAL  PTSUNNY   86  59  39 S14       29.91F
DULLES         MOSUNNY   82  59  45 SW12      29.91F
FORT BELVOIR   NOT AVBL
QUANTICO       NOT AVBL
FREDERICKSBRG* PTSUNNY   85  63  47 W6        29.91F
STAFFORD*      MOSUNNY   81  60  48 W5        29.96F
WARRENTON      MOSUNNY   82  65  57 SW3       29.92F
CULPEPER*      SUNNY     80  61  52 SW6       29.94F
MANASSAS*      SUNNY     82  61  47 SW7       29.92F
LEESBURG*      SUNNY     86  64  48 SW9       29.92F
WINCHESTER     SUNNY     84  59  42 S10       29.92S
FRONT ROYAL*   FAIR      81  63  54 S7        29.91F
LURAY*         FAIR      84  59  42 SW12      29.94F
$$

VAZ048-049-060>072-079>083-030000-
CENTRAL AND SOUTH CENTRAL VIRGINIA

CITY           SKY/WX    TMP DP  RH WIND       PRES   REMARKS
RICHMOND       PTSUNNY   85  60  42 NE5       29.92F
CHESTERFIELD*  FAIR      84  55  37 NW9       29.94F
PETERSBURG*    MOSUNNY   86  67  53 W3        29.93F
HANOVER        PTSUNNY   83  60  45 NW5       29.94F
TAPPAHANNOCK*  PTSUNNY   83  64  52 CALM      29.93F
QUINTON*       FAIR      83  65  54 CALM      29.91F
CHARLOTTSVILLE SUNNY     81  62  52 VRB5      29.95F
GORDONSVILLE*  FAIR      81  63  54 CALM      29.93F
ORANGE*        SUNNY     82  61  47 CALM      29.95F
LOUISA*        MOSUNNY   82  59  44 W3        29.93F
BUMPASS*       FAIR      80  64  56 W3        29.94F
FARMVILLE*     MOSUNNY   85  56  37 CALM      29.93F
CREWE*         FAIR     N/A N/A N/A CALM      29.94F
FORT PICKETT*  FAIR      84  57  39 CALM      29.94F
CHASE CITY*    FAIR      84  65  52 CALM      29.95F
CLARKSVILLE*   FAIR      82  59  44 CALM      29.94F
SOUTH HILL*    SUNNY     85  60  43 CALM      29.99F
LAWRENCEVILLE* FAIR      84  63  48 CALM      29.93F
EMPORIA*       SUNNY     82  63  51 N3        29.94S
$$

VAZ088>098-030000-
SOUTHEAST VIRGINIA

CITY           SKY/WX    TMP DP  RH WIND       PRES   REMARKS
NORFOLK        SUNNY     83  73  72 N8        29.91F
VIRGINIA BEACH MOSUNNY   85  72  65 NE8       29.91F
NORFOLK NAVAL  PTSUNNY   83  69  62 NE7       29.93F
WEST POINT*    MOSUNNY   83  64  51 SE3       29.93F
SALUDA*        FAIR      81  68  65 CALM      29.92F
NEWPORT NEWS   SUNNY     84  66  54 N5        29.92F
LANGLEY AFB    NOT AVBL
FORT EUSTIS    SUNNY     85  61  43 N3        29.90F
WILLIAMSBURG*  MOSUNNY   84  70  61 CALM      29.93F
HR EXEC AP*    FAIR      84  70  61 NE3       29.94S
FRANKLIN*      SUNNY     84  69  62 N5        29.93S
WAKEFIELD      SUNNY     85  68  56 CALM      29.92F
$$

VAZ020-022-025-037-045-030000-
WEST CENTRAL AND SOUTHWEST VIRGINIA

CITY           SKY/WX    TMP DP  RH WIND       PRES   REMARKS
STAUNTON*      MOSUNNY   83  56  39 SW10      29.98F
WAYNESBORO*    FAIR      78  59  51 SW5       29.99F
HOT SPRINGS VA MOSUNNY   71  54  55 S7        30.10F
LYNCHBURG      SUNNY     80  60  50 SW3       29.98F
DANVILLE       SUNNY     85  58  39 CALM      29.96F
SOUTH BOSTON*  FAIR      83  62  48 CALM      29.95F
MARTINSVILLE   SUNNY     85  52  31 CALM      29.99F
ROANOKE        MOSUNNY   83  53  35 SE6       29.99F
BLACKSBURG     MOSUNNY   79  57  47 W3        30.05F
DUBLIN*          N/A     81  51  35 CALM      30.03F
MARION*        SUNNY     79  53  40 CALM      30.06F
HILLSVILLE*    SUNNY     77  57  51 NE5       30.04F
RICHLANDS*     FAIR      77  58  52 CALM      30.04F
WISE*          SUNNY     82  48  30 CALM      30.05F
ABINGDON*      SUNNY     83  49  31 NE3       30.00F
$$

MDZ021>025-VAZ099-100-030000-
SOUTHERN MARYLAND AND THE DELMARVA PENINSULA

CITY           SKY/WX    TMP DP  RH WIND       PRES   REMARKS
PATUXENT RIVER MOSUNNY   83  57  41 W10       29.91F
BAY BRIDGE APT   N/A     84  55  37 S5        29.90F
LEONARDTOWN    MOSUNNY   82  57  42 SW3       29.94S
DOVER          PTSUNNY   83  65  54 S8        29.89F
GEORGETOWN     CLOUDY    82  63  52 S7        29.92F
EASTON         PTSUNNY   82  61  47 SW5       29.94F
CAMBRIDGE      PTSUNNY   82  59  44 CALM      29.91F
SALISBURY      CLOUDY    80  70  71 SE5       29.91F
OCEAN CITY     CLOUDY    80  69  69 S3        29.92F
WALLOPS ISLAND CLOUDY    79  73  82 S3        29.92F
ACCOMACK*      PTSUNNY   79  75  89 CALM      29.92F
$$

NCZ012>017-030>032-030000-
NORTH CENTRAL AND EASTERN NORTH CAROLINA

CITY           SKY/WX    TMP DP  RH WIND       PRES   REMARKS
ROANOKE RAPIDS FAIR      86  59  39 N7        29.92S
RALEIGH        MOSUNNY   87  60  40 NE7       29.93F
ELIZABETH CITY MOSUNNY   84  75  74 N12       29.90F
AHOSKIE*       SUNNY     84  64  50 N6        29.92S
EDENTON*         N/A     87  67  50 N5        29.90S
CURRITUCK*     MOSUNNY   84  70  64 N7        29.91F
KILL DEVIL HLS MOSUNNY   86  72  62 S8        29.90S
MANTEO         MOSUNNY   86  74  68 SW17      29.91S
CAPE HATTERAS  SUNNY     83  75  77 SW14G22   29.93S
TARBORO*         N/A     90  60  36 N3        29.91S
GOLDSBORO      MOSUNNY   87  68  52 S8        29.89S
WASHINGTON     MOSUNNY   87  73  62 SW10G17   29.91S
GREENVILLE     SUNNY     90  59  35 W3        29.92F
NEW BERN       SUNNY     85  73  67 S12       29.94S
WILMINGTON     MOSUNNY   82  72  71 S12G20    29.94S
$$

VAZ048-030000-
ELSEWHERE

CITY           SKY/WX    TMP DP  RH WIND       PRES   REMARKS
HARRISBURG PA  MOSUNNY   85  60  42 VRB5      29.88S
BALTIMORE      MOSUNNY   84  61  45 S5        29.89F
ANNAPOLIS      PTSUNNY   83  59  44 SW8       29.89F
ANDREWS AFB    NOT AVBL
PHILADELPHIA   PTSUNNY   88  52  29 SW10      29.88F
HENDERSON NC   SUNNY     84  53  34 NW5       29.95S
GREENSBORO     MOSUNNY   86  55  34 NE8       29.95F
ROCKY MOUNT    SUNNY     91  58  32 N9        29.91S
$$

VAZ100-030000-
MARINE

STATION/POSITION TIME  TEMP    WIND        PRES    WAVE   SWELL
                       AIR SEA DIR/SP/G            HT/PER HT/PER
                 (UTC) (F)     (DEG/KT/KT) (MB)    (FT/S) (FT/S)
BRANDYWINE LGT   2200   78 78  180/  9/  9 1013.2F
CAPE MAY NJ      2200   79 79  160/  6/  7 1012.7F
LEWES DE         2200   81 76  150/  3/  4 1013.0F
15NM E FENWICK I 2250   80 80  140/  8/  8 1013.3F   2/11   2/11
OCEAN-CITY-INLET 2200   80 78  170/  3/  5 1012.7F
WACHAPREAGUE VA  2200   82 87   CALM  /  2 1013.7F
THOMAS POINT MD  2300   83 81  220/ 10/ 12 1012.9F
GOOSES REEF MD   2300   85 84  270/ 10/ 10 1013.7F
COVE POINT MD    2200   82     180/  5/  6 1013.9F
SOLOMONS ISLAND  2200      85                N/A
BISHOPS HEAD MD  2200   84 84  270/  7/  8 1012.5F
PINEY POINT MD   2200          310/  7/  8   N/A
POTOMAC MD       2300   86 84  220/  2/  4 1011.8F   0
CAMBRIDGE MD     2200   85 85  280/  4/  6 1012.3F
LEWISETTA VA     2200   86 85  350/  1/  2 1012.9F
RAPPAHANNOCK LGT 2200          350/  5/  6 1014.2S
STINGRAY PT      2300   83 83   40/  2/  4 1013.1F   0
YORK RVR RNG VA  2200   82      30/  5/  6 1013.1F
YORKTOWN VA      2200   84 84   10/  3/  4 1013.3F
JAMESTOWN VA     2300   84 86   70/  2/  4   N/A
DOMINION TERM VA 2200   83      90/  8/ 11 1013.4S
KIPTOPEKE VA     2200      82   90/  2/  4   N/A
CHES BAY BRIDGE  2200   80 81   20/  5/  6 1013.1F
CAPE HENRY VA    2200   80      30/  8/  9   N/A
CHESAPEAKE LGHT  2200   81      20/  2/  2 1014.2R
WILLOUBY STN VA  2200   82      30/  9/  9 1014.4F
CAPE HENRY BUOY  2228      82                N/A     2/11   2/11
1ST LANDING BUOY 2300      82              1012.9F   1/ 4
CAPE CHARLES BUO 2226      80                N/A     2/12   2/12
OFFSHORE WE BUOY 2211      85                N/A     2/11   2/11
64NM E OF VA BCH 2250   82 82  210/ 14/ 16 1012.6F   3/ 8   2/ 8
DUCK PIER NC     2200   86 81  170/ 15/ 18 1011.6F
44100 DUCK FRF   2224      80                N/A     2/ 7
44056 DUCK FRF   2211      81                N/A     2/12   2/12
OREGON INLET NC  2200   84 84  190/ 17/ 19 1013.1F
HATTERAS NC      2200   84 82  210/ 12/ 16 1013.3F
DIAMOND SHLS NC  2250   82 85  210/ 16/ 19 1013.5F   4/ 8   2/ 8



USA.gov is the U.S. government's official web portal to all federal, state and local government web resources and services.